GW2791 Weather Reports


time (UTC)temp
F
wind
direction
speed
knots
gust
knots
rain 1hr
in
rain 24hr
in
rain mn
in
humidity
%
barometer
mb
20260510081803 44 259 0.0 0.0 0.00 0.00 0.00 99 1011.8
20260510081259 44 300 0.0 0.0 0.00 0.00 0.00 99 1011.5
20260510080754 44 236 1.7 1.7 0.00 0.00 0.00 99 1011.6
20260510080250 44 207 0.0 0.9 0.00 0.00 0.00 99 1011.3
20260510075747 44 279 0.0 0.0 0.00 0.00 0.00 99 1011.2
20260510075245 44 291 0.0 0.0 0.00 0.00 0.00 99 1011.4
20260510074741 44 158 0.9 0.9 0.00 0.00 0.00 99 1011.3
20260510074238 44 281 0.0 0.0 0.00 0.00 0.00 99 1011.3
20260510073734 44 206 0.0 0.9 0.00 0.00 0.00 99 1011.3
20260510073230 44 270 0.0 0.0 0.00 0.00 0.00 99 1011.1
20260510072726 44 241 0.9 0.9 0.00 0.00 0.00 99 1011.3
20260510072223 45 55 0.9 1.7 0.00 0.00 0.00 99 1011.2
20260510071719 45 209 0.9 0.9 0.00 0.00 0.00 99 1011.2
20260510071216 44 1 0.0 0.0 0.00 0.00 0.00 99 1011.2
20260510070714 45 254 0.0 0.0 0.00 0.00 0.00 99 1011.3
20260510070211 45 351 0.0 0.0 0.00 0.00 0.00 99 1011.3
20260510065706 45 281 0.0 0.0 0.00 0.00 0.00 99 1011.1
20260510065203 45 238 0.0 0.0 0.00 0.00 0.00 99 1011.0
20260510064659 45 277 0.0 0.0 0.00 0.00 0.00 99 1011.0
20260510064157 46 226 0.0 0.0 0.00 0.00 0.00 99 1011.1
20260510063654 46 185 0.9 0.9 0.00 0.00 0.00 99 1010.9
20260510063150 46 301 0.0 0.0 0.00 0.00 0.00 99 1011.2
20260510062646 47 293 0.0 0.0 0.00 0.00 0.00 99 1011.1
20260510062142 46 214 0.0 0.9 0.00 0.00 0.00 99 1011.3
20260510061637 47 354 0.9 0.9 0.00 0.00 0.00 99 1011.1
20260510061135 46 227 1.7 1.7 0.00 0.00 0.00 99 1011.0
20260510060631 47 259 0.0 0.0 0.00 0.00 0.00 99 1011.1
20260510060128 47 236 0.0 0.0 0.00 0.00 0.00 99 1011.0
20260510055624 48 274 0.0 0.0 0.00 0.00 0.00 99 1011.2
20260510055123 47 205 0.9 0.9 0.00 0.00 0.00 99 1011.1
20260510054618 47 252 0.0 0.0 0.00 0.00 0.00 99 1011.1
20260510054113 48 243 0.0 0.0 0.00 0.00 0.00 99 1011.0
20260510053613 48 128 2.6 2.6 0.00 0.00 0.00 99 1010.8
20260510053110 48 213 0.0 0.0 0.00 0.00 0.00 99 1010.8
20260510052605 48 271 0.0 0.0 0.00 0.00 0.00 99 1010.8
20260510052102 48 263 0.0 0.0 0.00 0.00 0.00 99 1010.9
20260510051557 48 261 0.0 0.0 0.00 0.00 0.00 99 1010.8
20260510051054 48 208 0.0 0.9 0.00 0.00 0.00 99 1010.9
20260510050551 48 206 0.0 0.0 0.00 0.00 0.00 99 1011.0
20260510050048 48 299 0.0 0.0 0.00 0.00 0.00 99 1010.8
20260510045540 49 41 0.9 0.9 0.00 0.00 0.00 99 1011.0
20260510045036 48 233 0.0 0.0 0.00 0.00 0.00 99 1011.0
20260510044533 50 292 0.0 0.0 0.00 0.00 0.00 99 1011.2
20260510044031 50 243 0.0 0.9 0.00 0.00 0.00 99 1010.9
20260510043526 49 171 0.9 0.9 0.00 0.00 0.00 99 1011.1
20260510043021 50 202 0.0 0.0 0.00 0.00 0.00 99 1010.9
20260510042515 50 62 0.9 0.9 0.00 0.00 0.00 99 1011.0
20260510042010 50 216 0.0 0.0 0.00 0.00 0.00 99 1011.0
20260510041508 49 52 0.9 1.7 0.00 0.00 0.00 99 1011.2
20260510041006 50 251 0.0 0.0 0.00 0.00 0.00 99 1011.2
20260510040502 50 341 0.0 0.0 0.00 0.00 0.00 99 1011.1
20260510035957 50 234 0.0 0.0 0.00 0.00 0.00 99 1011.4
20260510035455 49 188 0.0 0.0 0.00 0.00 0.00 99 1011.5
20260510034954 50 144 2.6 2.6 0.00 0.00 0.00 99 1011.3
20260510034453 50 292 0.0 0.9 0.00 0.00 0.00 99 1011.3
20260510033949 51 285 0.0 0.0 0.00 0.00 0.00 99 1011.1
20260510033445 50 79 0.0 0.0 0.00 0.00 0.00 99 1011.3
20260510032942 51 308 0.0 0.0 0.00 0.00 0.00 99 1011.1
20260510032439 50 238 0.0 0.0 0.00 0.00 0.00 99 1011.2
20260510031939 51 331 0.0 0.0 0.00 0.00 0.00 99 1011.1
20260510031435 51 185 0.0 0.9 0.00 0.00 0.00 99 1011.2
20260510030931 51 149 0.9 1.7 0.00 0.00 0.00 99 1011.0
20260510030426 52 152 0.9 0.9 0.00 0.00 0.00 99 1010.9
20260510025924 52 264 0.0 0.0 0.00 0.00 0.00 99 1010.9
20260510025421 52 171 0.0 0.0 0.00 0.00 0.00 99 1010.8
20260510024919 52 266 0.0 0.0 0.00 0.00 0.00 99 1010.8
20260510024415 52 327 0.0 0.0 0.00 0.00 0.00 99 1010.8
20260510023911 53 317 0.0 0.0 0.00 0.00 0.00 99 1010.7
20260510023407 53 270 0.0 0.0 0.00 0.00 0.00 99 1010.6
20260510022905 53 234 0.0 0.0 0.00 0.00 0.00 99 1010.7
20260510022404 53 204 0.0 0.0 0.00 0.00 0.00 99 1010.5
20260510021903 54 313 0.0 0.0 0.00 0.00 0.00 99 1010.6
20260510021401 54 160 0.0 0.0 0.00 0.00 0.00 99 1010.5
20260510020857 54 269 0.0 0.0 0.00 0.00 0.00 99 1010.2
20260510020352 54 238 0.0 0.0 0.00 0.00 0.00 99 1010.1
20260510015848 54 246 0.0 0.0 0.00 0.00 0.00 98 1010.2
20260510015344 54 251 0.0 0.0 0.00 0.00 0.00 97 1009.9
20260510014840 55 253 0.0 0.0 0.00 0.00 0.00 97 1009.8
20260510014337 55 239 0.0 0.0 0.00 0.00 0.00 97 1009.9
20260510013833 55 286 0.0 0.0 0.00 0.00 0.00 97 1009.9
20260510013329 56 241 0.0 0.0 0.00 0.00 0.00 96 1009.8
20260510012824 56 278 0.0 0.0 0.00 0.00 0.00 96 1009.6
20260510012324 56 277 0.0 0.0 0.00 0.00 0.00 95 1009.6
20260510011819 57 281 0.0 0.0 0.00 0.00 0.00 94 1009.7
20260510011314 57 253 0.0 0.0 0.00 0.00 0.00 94 1009.5
20260510010811 57 264 0.0 0.0 0.00 0.00 0.00 93 1009.3
20260510010308 58 274 0.0 0.0 0.00 0.00 0.00 92 1009.3
20260510005805 58 246 0.0 0.0 0.00 0.00 0.00 93 1009.6
20260510005301 59 322 0.0 0.0 0.00 0.00 0.00 92 1009.2
20260510004759 59 276 0.0 0.0 0.00 0.00 0.00 90 1008.7
20260510004256 60 265 0.0 0.0 0.00 0.00 0.00 89 1008.9
20260510003754 60 252 0.0 0.0 0.00 0.00 0.00 88 1008.8
20260510003250 61 281 0.0 0.0 0.00 0.00 0.00 87 1008.8
20260510002749 61 294 0.0 0.0 0.00 0.00 0.00 86 1008.7
20260510002247 62 247 0.0 0.0 0.00 0.00 0.00 85 1008.9
20260510001743 62 319 0.0 0.0 0.00 0.00 0.00 83 1008.5
20260510001242 63 332 0.0 0.0 0.00 0.00 0.00 82 1008.4
20260510000737 63 21 0.9 0.9 0.00 0.00 0.00 82 1008.2
20260510000235 64 341 0.0 0.0 0.00 0.00 0.00 80 1008.2
20260509235731 65 309 0.0 0.0 0.00 0.00 0.00 78 1008.3
20260509235228 66 328 0.0 0.0 0.00 0.00 0.00 76 1008.4
20260509234724 69 287 0.0 0.0 0.00 0.00 0.00 71 1008.2
20260509234221 71 262 0.0 0.0 0.00 0.00 0.00 64 1008.1
20260509233719 71 229 0.0 0.9 0.00 0.00 0.00 62 1008.0
20260509233217 73 227 0.0 0.9 0.00 0.00 0.00 60 1008.2
20260509232713 73 227 0.9 0.9 0.00 0.00 0.00 60 1008.3
20260509232210 73 214 1.7 1.7 0.00 0.00 0.00 59 1008.1
20260509231706 73 223 0.9 0.9 0.00 0.00 0.00 59 1008.1
20260509231204 74 214 2.6 4.3 0.00 0.00 0.00 57 1008.3
20260509230701 74 230 2.6 2.6 0.00 0.00 0.00 58 1008.2
20260509230157 74 214 2.6 2.6 0.00 0.00 0.00 57 1008.1
20260509225653 74 238 2.6 4.3 0.00 0.00 0.00 57 1008.2
20260509225149 74 241 3.5 5.2 0.00 0.00 0.00 58 1008.3
20260509224645 74 183 2.6 2.6 0.00 0.00 0.00 58 1007.9
20260509224142 74 231 2.6 2.6 0.00 0.00 0.00 57 1008.0
20260509223638 74 291 1.7 2.6 0.00 0.00 0.00 57 1008.4
20260509223136 74 215 2.6 2.6 0.00 0.00 0.00 57 1008.2
20260509222633 75 294 1.7 4.3 0.00 0.00 0.00 56 1008.4
20260509222127 74 208 1.7 1.7 0.00 0.00 0.00 56 1008.1
20260509221624 74 250 2.6 2.6 0.00 0.00 0.00 56 1008.0
20260509221120 75 234 2.6 2.6 0.00 0.00 0.00 56 1008.2
20260509220616 75 287 1.7 2.6 0.00 0.00 0.00 55 1008.0
20260509220113 74 226 4.3 6.1 0.00 0.00 0.00 56 1008.1
20260509215609 74 245 3.5 5.2 0.00 0.00 0.00 57 1008.2
20260509215106 73 237 4.3 6.1 0.00 0.00 0.00 57 1008.3
20260509214602 74 221 3.5 5.2 0.00 0.00 0.00 57 1008.5
20260509214059 74 247 4.3 5.2 0.00 0.00 0.00 56 1008.1
20260509213555 74 230 5.2 7.0 0.00 0.00 0.00 56 1008.2
20260509213052 75 218 5.2 6.1 0.00 0.00 0.00 56 1007.9
20260509212549 75 217 4.3 5.2 0.00 0.00 0.00 54 1008.1
20260509212046 76 235 2.6 4.3 0.00 0.00 0.00 53 1008.0
20260509211542 74 297 1.7 2.6 0.00 0.00 0.00 55 1007.8
20260509211039 74 259 1.7 2.6 0.00 0.00 0.00 57 1008.0
20260509210536 74 236 3.5 6.1 0.00 0.00 0.00 57 1007.9
20260509210032 75 204 2.6 5.2 0.00 0.00 0.00 56 1008.0
20260509205526 76 193 3.5 4.3 0.00 0.00 0.00 54 1007.7
20260509205022 75 298 3.5 5.2 0.00 0.00 0.00 55 1007.8
20260509204518 76 250 0.9 0.9 0.00 0.00 0.00 53 1007.6
20260509204015 77 182 3.5 4.3 0.00 0.00 0.00 52 1007.7
20260509203511 74 200 1.7 1.7 0.00 0.00 0.00 55 1007.6
20260509203009 75 234 3.5 5.2 0.00 0.00 0.00 53 1007.7
20260509202503 77 184 0.0 0.9 0.00 0.00 0.00 53 1007.6
20260509201959 76 217 7.0 8.7 0.00 0.00 0.00 55 1007.5
20260509201454 77 200 2.6 2.6 0.00 0.00 0.00 50 1007.3
20260509200952 75 243 5.2 7.0 0.00 0.00 0.00 52 1007.8
20260509200446 77 233 6.1 7.0 0.00 0.00 0.00 49 1007.5
20260509195943 76 248 2.6 4.3 0.00 0.00 0.00 52 1007.8
20260509195433 76 228 5.2 6.1 0.00 0.00 0.00 49 1007.6
20260509194933 75 195 5.2 6.1 0.00 0.00 0.00 50 1007.8
20260509194428 75 251 7.0 12.2 0.00 0.00 0.00 50 1007.8
20260509193926 77 249 1.7 1.7 0.00 0.00 0.00 49 1008.0
20260509193425 77 241 8.7 9.6 0.00 0.00 0.00 50 1008.1
20260509192922 76 244 0.9 0.9 0.00 0.00 0.00 50 1008.1
20260509192418 77 217 5.2 7.0 0.00 0.00 0.00 49 1008.2
20260509191913 76 246 6.1 8.7 0.00 0.00 0.00 51 1008.4
20260509191409 75 262 4.3 7.0 0.00 0.00 0.00 49 1008.3
20260509190905 74 183 3.5 5.2 0.00 0.00 0.00 52 1008.2
20260509190403 74 273 3.5 4.3 0.00 0.00 0.00 53 1008.4
20260509185900 76 233 10.4 13.9 0.00 0.00 0.00 51 1008.3
20260509185356 77 242 2.6 4.3 0.00 0.00 0.00 51 1008.6
20260509184853 74 174 1.7 2.6 0.00 0.00 0.00 56 1008.4
20260509184350 73 221 2.6 4.3 0.00 0.00 0.00 57 1008.9
20260509183847 72 123 1.7 1.7 0.00 0.00 0.00 56 1008.7
20260509183342 74 237 3.5 5.2 0.00 0.00 0.00 56 1008.5
20260509182838 73 107 2.6 5.2 0.00 0.00 0.00 55 1008.8
20260509182336 74 294 0.9 0.9 0.00 0.00 0.00 56 1008.8
20260509181833 73 233 5.2 7.0 0.00 0.00 0.00 55 1008.9
20260509181330 73 261 2.6 5.2 0.00 0.00 0.00 55 1008.9
20260509180827 74 201 6.1 7.8 0.00 0.00 0.00 54 1009.2
20260509180323 74 292 0.9 1.7 0.00 0.00 0.00 54 1009.2
20260509175820 74 216 2.6 2.6 0.00 0.00 0.00 51 1009.3
20260509175316 74 171 4.3 6.1 0.00 0.00 0.00 56 1009.5
20260509174812 73 226 4.3 7.8 0.00 0.00 0.00 59 1009.4
20260509174308 73 246 2.6 5.2 0.00 0.00 0.00 58 1009.2
20260509173804 72 136 2.6 4.3 0.00 0.00 0.00 60 1009.4
20260509173300 72 93 1.7 1.7 0.00 0.00 0.00 61 1009.7
20260509172756 72 217 6.1 8.7 0.00 0.00 0.00 59 1009.7
20260509172253 72 224 6.1 7.8 0.00 0.00 0.00 60 1009.8
20260509171748 72 89 2.6 4.3 0.00 0.00 0.00 60 1009.9
20260509171245 73 238 1.7 2.6 0.00 0.00 0.00 59 1010.0
20260509170741 71 172 6.1 9.6 0.00 0.00 0.00 62 1010.0
20260509170237 70 169 4.3 5.2 0.00 0.00 0.00 62 1010.1
20260509165736 69 187 6.1 7.8 0.00 0.00 0.00 64 1010.3
20260509165231 70 200 2.6 2.6 0.00 0.00 0.00 64 1009.8
20260509164728 71 221 3.5 5.2 0.00 0.00 0.00 61 1009.8
20260509164224 69 240 5.2 7.0 0.00 0.00 0.00 63 1009.8
20260509163721 67 235 7.8 11.3 0.00 0.00 0.00 65 1010.1
20260509163217 68 173 3.5 4.3 0.00 0.00 0.00 65 1010.0
20260509162715 70 289 4.3 7.0 0.00 0.00 0.00 62 1010.3
20260509162210 69 271 2.6 2.6 0.00 0.00 0.00 63 1010.0
20260509161706 68 334 2.6 5.2 0.00 0.00 0.00 64 1010.0
20260509161202 68 163 4.3 6.1 0.00 0.00 0.00 64 1010.0
20260509160657 71 213 6.1 7.8 0.00 0.00 0.00 62 1009.8
20260509160153 69 245 3.5 5.2 0.00 0.00 0.00 63 1010.1
20260509155650 69 217 2.6 5.2 0.00 0.00 0.00 63 1010.0
20260509155146 69 201 3.5 5.2 0.00 0.00 0.00 63 1010.0
20260509154642 68 211 6.1 7.0 0.00 0.00 0.00 64 1009.9
20260509154139 67 204 4.3 6.1 0.00 0.00 0.00 65 1010.1
20260509153636 68 107 5.2 7.0 0.00 0.00 0.00 63 1010.3
20260509153132 69 235 1.7 2.6 0.00 0.00 0.00 62 1010.2
20260509152628 68 204 5.2 7.0 0.00 0.00 0.00 64 1010.1
20260509152126 68 228 4.3 5.2 0.00 0.00 0.00 65 1010.1
20260509151622 66 118 1.7 2.6 0.00 0.00 0.00 66 1010.2
20260509151120 66 166 2.6 4.3 0.00 0.00 0.00 65 1010.5
20260509150618 66 264 2.6 2.6 0.00 0.00 0.00 66 1010.4
20260509150116 67 228 3.5 4.3 0.00 0.00 0.00 65 1010.5
20260509145611 65 299 0.9 1.7 0.00 0.00 0.00 65 1010.6
20260509145107 66 242 2.6 2.6 0.00 0.00 0.00 64 1010.5
20260509144604 65 250 2.6 4.3 0.00 0.00 0.00 65 1010.5
20260509144101 65 176 4.3 5.2 0.00 0.00 0.00 64 1010.6
20260509143558 65 237 5.2 7.0 0.00 0.00 0.00 65 1010.4
20260509143055 66 216 2.6 2.6 0.00 0.00 0.00 64 1010.3
20260509142550 65 270 1.7 2.6 0.00 0.00 0.00 65 1010.3
20260509142047 65 286 1.7 1.7 0.00 0.00 0.00 65 1010.4
20260509141543 62 228 2.6 2.6 0.00 0.00 0.00 68 1010.6
20260509141040 62 237 2.6 4.3 0.00 0.00 0.00 68 1010.7
20260509140537 61 228 2.6 4.3 0.00 0.00 0.00 69 1010.7
20260509140035 61 235 4.3 5.2 0.00 0.00 0.00 68 1010.7
20260509135532 61 293 0.9 1.7 0.00 0.00 0.00 68 1011.1
20260509135030 61 247 3.5 5.2 0.00 0.00 0.00 68 1011.0
20260509134526 60 325 0.9 1.7 0.00 0.00 0.00 69 1010.9
20260509134024 60 292 2.6 2.6 0.00 0.00 0.00 68 1010.8
20260509133520 60 209 3.5 5.2 0.00 0.00 0.00 68 1011.0
20260509133018 60 230 4.3 5.2 0.00 0.00 0.00 68 1010.7
20260509132516 60 311 0.9 1.7 0.00 0.00 0.00 67 1010.7
20260509132014 59 267 0.9 0.9 0.00 0.00 0.00 69 1011.1
20260509131510 59 263 0.0 0.9 0.00 0.00 0.00 69 1011.0
20260509131007 59 256 1.7 2.6 0.00 0.00 0.00 69 1011.2
20260509130502 58 325 0.9 1.7 0.00 0.00 0.00 70 1011.1
20260509125959 58 251 2.6 2.6 0.00 0.00 0.00 69 1011.3
20260509125456 58 298 1.7 1.7 0.00 0.00 0.00 70 1011.3
20260509124951 58 238 1.7 1.7 0.00 0.00 0.00 70 1011.3
20260509124449 58 273 1.7 2.6 0.00 0.00 0.00 69 1011.3
20260509123946 58 234 0.9 1.7 0.00 0.00 0.00 72 1011.4
20260509123444 58 249 1.7 2.6 0.00 0.00 0.00 71 1011.4
20260509122939 58 242 1.7 1.7 0.00 0.00 0.00 71 1011.3
20260509122437 57 260 0.9 0.9 0.00 0.00 0.00 71 1011.3
20260509121933 57 245 0.9 0.9 0.00 0.00 0.00 73 1011.3
20260509121430 56 235 1.7 1.7 0.00 0.00 0.00 73 1011.3
20260509120928 56 190 1.7 2.6 0.00 0.00 0.00 73 1011.4
20260509120426 56 327 0.9 1.7 0.00 0.00 0.00 74 1011.6
20260509115924 55 231 2.6 2.6 0.00 0.00 0.00 72 1011.5
20260509115421 55 334 2.6 2.6 0.00 0.00 0.00 73 1011.5
20260509114918 54 267 1.7 2.6 0.00 0.00 0.00 75 1011.5
20260509114417 54 272 0.0 0.9 0.00 0.00 0.00 78 1011.5
20260509113916 54 278 0.0 0.9 0.00 0.00 0.00 77 1011.3
20260509113413 53 286 0.9 1.7 0.00 0.00 0.00 77 1011.3
20260509112909 53 271 0.0 0.0 0.00 0.00 0.00 81 1011.2
20260509112407 53 256 0.0 0.0 0.00 0.00 0.00 81 1011.3
20260509111904 53 267 0.0 0.0 0.00 0.00 0.00 79 1011.3
20260509111400 52 243 0.0 0.9 0.00 0.00 0.00 78 1011.2
20260509110858 52 233 0.0 0.0 0.00 0.00 0.00 79 1011.2
20260509110354 51 231 0.9 1.7 0.00 0.00 0.00 79 1011.0
20260509105852 51 219 0.9 0.9 0.00 0.00 0.00 83 1011.1
20260509105350 51 235 0.0 0.0 0.00 0.00 0.00 80 1011.1
20260509104847 50 265 0.0 0.0 0.00 0.00 0.00 84 1011.0
20260509104343 51 238 0.0 0.0 0.00 0.00 0.00 82 1010.9
20260509103841 51 251 0.0 0.0 0.00 0.00 0.00 80 1011.2
20260509103338 51 145 0.9 1.7 0.00 0.00 0.00 80 1011.0
20260509102837 50 219 0.0 0.0 0.00 0.00 0.00 81 1010.9
20260509102334 50 255 0.0 0.9 0.00 0.00 0.00 84 1011.1
20260509101830 51 273 0.0 0.0 0.00 0.00 0.00 83 1011.1
20260509101326 51 239 0.0 0.0 0.00 0.00 0.00 81 1010.9
20260509100824 51 261 0.0 0.0 0.00 0.00 0.00 82 1011.0
20260509100321 51 256 0.0 0.0 0.00 0.00 0.00 83 1011.0
20260509095817 51 259 0.0 0.0 0.00 0.00 0.00 83 1011.1
20260509095315 51 239 0.0 0.0 0.00 0.00 0.00 81 1010.9
20260509094812 51 248 0.0 0.0 0.00 0.00 0.00 82 1010.9
20260509094308 52 237 0.0 0.0 0.00 0.00 0.00 79 1010.9
20260509093806 52 242 0.9 1.7 0.00 0.00 0.00 77 1010.8
20260509093303 51 232 0.0 0.0 0.00 0.00 0.00 80 1010.9
20260509092802 51 240 0.0 0.9 0.00 0.00 0.00 80 1010.7
20260509092259 50 291 0.0 0.0 0.00 0.00 0.00 82 1011.1
20260509091757 50 259 0.0 0.9 0.00 0.00 0.00 84 1010.9
20260509091253 50 293 0.0 0.0 0.00 0.00 0.00 85 1011.1
20260509090751 50 300 0.0 0.0 0.00 0.00 0.00 85 1011.1
20260509090247 50 242 0.0 0.0 0.00 0.00 0.00 85 1011.0
20260509085745 49 253 0.0 0.0 0.00 0.00 0.00 84 1011.3
20260509085243 49 257 0.0 0.0 0.00 0.00 0.00 86 1011.2
20260509084739 49 215 0.0 0.0 0.00 0.00 0.00 85 1011.3
20260509084235 48 178 0.0 0.0 0.00 0.00 0.00 85 1011.1
20260509083734 48 177 0.0 0.0 0.00 0.00 0.00 85 1011.3
20260509083230 48 197 0.0 0.9 0.00 0.00 0.00 84 1011.2
20260509082727 48 270 0.0 0.0 0.00 0.00 0.00 84 1011.4
20260509082224 48 270 0.0 0.0 0.00 0.00 0.00 83 1011.4